Regional Weather Roundup
Issued by NWS

Home | Current Version | Previous Version | Text Only | Print | Product List | Glossary Off
Versions: 1 2 3 4 5 6 7 8 9 10 11 12 13 14 15 16 17 18 19 20 21 22 23 24 25 26 27

000
ASUS45 KTFX 241810
RWRMT
MONTANA REGIONAL WEATHER ROUNDUP
NATIONAL WEATHER SERVICE GREAT FALLS MT
1200 PM MDT MON APR 24 2017

NOTE: "FAIR" INDICATES FEW OR NO CLOUDS BELOW 12000 FEET WITH NO
SIGNIFICANT WEATHER AND/OR OBSTRUCTIONS TO VISIBILITY.

MTZ001>007-043-241900-
WEST OF THE DIVIDE

CITY           SKY/WX    TMP DP  RH WIND       PRES   REMARKS
KALISPELL      LGT RAIN  45  40  82 SW9       29.66S
MISSOULA       CLOUDY    50  35  56 CALM      29.66F
BUTTE          CLOUDY    45  26  47 VRB5      29.64F
MULLAN PASS    LGT SNOW  32  30  92 CALM      29.64S FOG
ANACONDA         N/A     48  28  46 CALM      29.63F
DEER LODGE       N/A     46  32  57 NE5       29.66F
EUREKA           N/A     48  37  66 S6        29.65F
HAMILTON         N/A     52  32  46 CALM      29.64F
LIBBY            N/A     50  36  57 NW3       29.64F
PLAINS           N/A     52  36  54 CALM      29.68
$$

MTZ008-052>055-241900-
SOUTHWEST MONTANA

CITY           SKY/WX    TMP DP  RH WIND       PRES   REMARKS
BOZEMAN        CLOUDY    48  36  63 CALM      29.65F
DILLON         CLOUDY    46  31  55 SW6       29.62F
W YELLOWSTONE  LGT SNOW  32  32 100 NE3       29.67F VSB 1
ENNIS          PTSUNNY   45  28  53 NW6       29.68F
THREE FORKS      N/A     49  28  44 CALM      29.68F
TWIN BRIDGES     N/A     48  31  52 SE5       29.67
$$

MTZ009-010-012-014-046-048-049-054-241900-
EAST SLOPES AND CENTRAL MONTANA

CITY           SKY/WX    TMP DP  RH WIND       PRES   REMARKS
CUT BANK       CLOUDY    47  32  56 E5        29.61S
GREAT FALLS    MOSUNNY   54  31  41 S6        29.61F
MALMSTROM AFB  MOSUNNY   51  31  44 SW8       29.61F
HELENA         CLOUDY    52  31  44 CALM      29.62F
AUGUSTA          N/A     49  26  40 NW12      29.61S
BOWMANS CRNR     N/A     50  27  40 S7        29.59F
CHOTEAU          N/A     52  27  37 VRB7      29.62S
FAIRFIELD        N/A     53  28  37 W6        29.59F
POWER            N/A     51  29  41 SW5       29.60F
RAYNESFORD       N/A     50  32  51 NW6       29.62S
ULM              N/A     53  34  49 S6        29.60F
$$

MTZ011-013-016-021-045-047-050-051-241900-
NORTH CENTRAL MONTANA

CITY           SKY/WX    TMP DP  RH WIND       PRES   REMARKS
HAVRE          CLOUDY    47  41  80 NE6       29.64F
LEWISTOWN      CLOUDY    49  33  54 W7        29.62F
N BAR RANCH    LGT RAIN  41  37  87 E5        29.67S
CHINOOK          N/A     45  39  81 E8        29.65F
DENTON           N/A     51  38  61 E5        29.58F
FORT BENTON      N/A    N/A N/A N/A MISG      29.63F
GEYSER         PTSUNNY   50  33  51 N5        29.61F
GRASS RANGE    LGT RAIN  49  38  64 N6        29.59S
JUDITH GAP     PTSUNNY   47  34  60 NW3       29.61F
STANFORD       PTSUNNY   49  34  55 N5        29.61F
WINIFRED         N/A     50  37  61 CALM      29.61F
$$

MTZ017>020-022>027-061-062-241900-
NORTHEAST MONTANA

CITY           SKY/WX    TMP DP  RH WIND       PRES   REMARKS
GLASGOW        CLOUDY    39  33  79 E7        29.69F
SIDNEY         CLOUDY    37  32  82 NE7       29.70S WCI  32
WOLF POINT     CLOUDY    39  32  76 NE9       29.72R
MALTA          CLOUDY    43  37  81 E7        29.68S
PLENTYWOOD       N/A     30  27  86 NE13      29.73S WCI  20
POPLAR           N/A     36  30  80 NE8       29.71F WCI  29
SCOBEY           N/A     32  22  67 E6        29.72  WCI  26
$$

MTZ028>42-056>058-241900-
SOUTHCENTRAL AND SOUTHEAST MONTANA

CITY           SKY/WX    TMP DP  RH WIND       PRES   REMARKS
BAKER          CLOUDY    43  38  82 N9        29.65R
BILLINGS       CLOUDY    52  36  54 VRB3      29.62F
LIVINGSTON     MOSUNNY   47  38  71 NW5       29.63F
MILES CITY     CLOUDY    47  41  80 NE8       29.64F
BIG TIMBER     MOSUNNY   48  37  66 W9G15     29.65F
EKALAKA          N/A     43  40  89 W8        29.66
LAUREL           N/A     50  39  65 CALM      29.65R
ROUNDUP          N/A     50  44  79 S7        29.58F
$$

REGIONAL REPORTS...DAKOTAS

CITY           SKY/WX    TMP DP  RH WIND       PRES   REMARKS
WILLISTON      CLOUDY    34  28  79 E9        29.72F WCI  27
MINOT          FLURRIES  33  27  78 N15       29.70F WCI  23
DICKINSON      CLOUDY    34  32  92 N6        29.63S WCI  29
BEACH          CLOUDY    37  37 100 N9        29.68S WCI  31
TIOGA          CLOUDY    30  30 100 E12       29.72S WCI  21
WATFORD CITY   CLOUDY    34  30  86 NE6       29.69S WCI  29
BISMARCK       CLOUDY    38  33  82 N9        29.64F WCI  31
GRAND FORKS    RAIN      36  34  92 NE12      29.64S FOG     WCI  28
FARGO          CLOUDY    53  40  61 N3        29.54S
BUFFALO SD       N/A     49  41  74 NW15      29.56S
RAPID CITY     MOSUNNY   57  43  59 N21G26    29.61F
$$

REGIONAL REPORTS...WYOMING/IDAHO/WASHINGTON

CITY           SKY/WX    TMP DP  RH WIND       PRES   REMARKS
GILLETTE         N/A     54  38  54 MISG      29.62F
SHERIDAN       PTSUNNY   57  35  43 CALM      29.62S
BUFFALO WY     CLOUDY    54  34  46 E6        29.64S
CODY           MOSUNNY   54  31  41 CALM      29.61F
YELLOWSTONE LA   N/A     33  32  96 VRB3      29.68F
IDAHO FALLS    CLOUDY    42  39  89 S13       29.70S
SALMON         CLOUDY    46  36  66 W3        29.62F
BOISE          LGT RAIN  46  42  86 W8        29.75R
SPOKANE        LGT RAIN  46  37  71 VRB7      29.69S
$$

REGIONAL REPORTS...ALBERTA

CITY           SKY/WX    TMP DP  RH WIND       PRES   REMARKS
EDMONTON       MIX PCPN  34  32  93 NE2       29.73S
CALGARY        LGT SNOW  34  34 100 NE5       29.68R VSB 3/4
LETHBRIDGE     DRIZZLE   41  37  87 NE8       29.65S
MEDICINE HAT   CLOUDY    43  39  87 NE9       29.65S
WATERTON GATE    N/A     46  28  49 SW10        N/A
CARDSTON         N/A     46  34  61 N3          N/A
MILK RIVER       N/A     50  39  66 N7          N/A
ONEFOUR          N/A     46  39  76 E3          N/A
$$

REGIONAL REPORTS...SASKATCHEWAN

CITY           SKY/WX    TMP DP  RH WIND       PRES   REMARKS
SWIFT CURRENT  CLOUDY    32  30  93 SE15G21   29.70R WCI  22
REGINA         CLOUDY    30  23  74 E17G23    29.81R WCI  18
SASKATOON      CLOUDY    32  25  74 SE20G26   29.86R WCI  20
VAL MARIE        N/A     37  34  87 E5          N/A
ROCKGLEN         N/A     28  28 100 E5          N/A
ASSINIBOIA       N/A     36  32  87 SE5         N/A
$$




USA.gov is the U.S. government's official web portal to all federal, state and local government web resources and services.